Regional Weather Roundup
Issued by NWS

Home | Current Version | Previous Version | Graphics & Text | Print | Product List | Glossary On
Versions: 1 2 3 4 5 6 7 8 9 10 11 12 13 14 15 16 17 18 19 20 21 22 23 24 25 26 27 28
000
ASUS45 KCYS 250610
RWRWY

WYOMING REGIONAL WEATHER ROUNDUP
NATIONAL WEATHER SERVICE CHEYENNE WY
1100 PM MST FRI NOV 24 2017

NOTE:  "FAIR" INDICATES FEW OR NO CLOUDS BELOW 12,000 FEET
WITH NO SIGNIFICANT WEATHER AND/OR OBSTRUCTIONS TO VISIBILITY.

WYZ001-250700-
YELLOWSTONE NATIONAL PARK

CITY           SKY/WX    TMP DP  RH WIND       PRES   REMARKS
LK YELLOWSTONE   N/A     29  23  78 CALM      30.18R
6HR MIN TEMP:  29; 6HR MAX TEMP:  34;

W YELLOWSTONE  NOT AVBL

$$
WYZ002>013-054>058-071-098>099-250700-
NORTHERN WYOMING

CITY           SKY/WX    TMP DP  RH WIND       PRES   REMARKS
JACKSON        MOCLDY    35  23  61 S9          N/A  WCI  28
CODY           FAIR      37  24  59 NW5       30.03R WCI  33
GREYBULL       FAIR      32  25  75 SE5       30.01R WCI  27
6HR MIN TEMP:  29; 6HR MAX TEMP:  49;

WORLAND        FAIR      29  24  82 SE6       30.00R WCI  23
6HR MIN TEMP:  28; 6HR MAX TEMP:  41;

SHERIDAN       FAIR      29  23  78 S8        30.02S WCI  21
6HR MIN TEMP:  27; 6HR MAX TEMP:  36;

BUFFALO        FAIR      32  19  58 W6        30.03R WCI  26
6HR MIN TEMP:  31; 6HR MAX TEMP:  42;

GILLETTE       FAIR      23  18  81 CALM      30.03R
6HR MIN TEMP:  22; 6HR MAX TEMP:  38;

HULETT         FAIR      30  23  74 SW7       30.03R WCI  23
NEWCASTLE      FAIR      30  21  69 N5        30.04S WCI  25

$$
WYZ014>020-022>026-101>103-250700-
CENTRAL WYOMING

CITY           SKY/WX    TMP DP  RH WIND       PRES   REMARKS
BIG PINEY      FAIR      30  28  92 NE6       30.18R WCI  24
6HR MIN TEMP:  26; 6HR MAX TEMP:  41; 6HR PCP: TRACE;

PINEDALE       CLOUDY    32  30  93 NW8       30.19R WCI  25
DUBOIS         FAIR      32  23  69 N18G29    30.10R WCI  20
LANDER         FAIR      33  28  81 NW8       30.02R WCI  26
6HR MIN TEMP:  31; 6HR MAX TEMP:  47;

RIVERTON       FAIR      38  28  67 W12       30.05R WCI  30
6HR MIN TEMP:  36; 6HR MAX TEMP:  45;

CASPER         FAIR      37  32  82 W7        30.03S WCI  32
6HR MIN TEMP:  30; 6HR MAX TEMP:  39;

DOUGLAS        FAIR      26  26 100 CALM      30.04R
6HR MIN TEMP:  25; 6HR MAX TEMP:  38;


$$
WYZ021-027>030-104>119-250700-
SOUTHERN WYOMING

CITY           SKY/WX    TMP DP  RH WIND       PRES   REMARKS
EVANSTON       FAIR      36  32  85 W14       30.20R WCI  27
6HR MIN TEMP:  34; 6HR MAX TEMP:  41;

KEMMERER       FAIR      32  32 100 W5        30.20R WCI  27
FORT BRIDGER   FAIR      37  32  82 W8        30.22R WCI  31
ROCK SPRINGS   FAIR      34  30  85 SW13      30.16R WCI  25
6HR MIN TEMP:  34; 6HR MAX TEMP:  42;

DIXON          CLOUDY    35  31  87 E10       30.20F WCI  27
RAWLINS        FAIR      37  31  78 W13       30.12F WCI  29
6HR MIN TEMP:  36; 6HR MAX TEMP:  44; 6HR PCP: TRACE;

SARATOGA       FAIR      32  32 100 S12G17    30.17F WCI  23
LARAMIE        FAIR      37  27  67 CALM      30.12R
6HR MIN TEMP:  32; 6HR MAX TEMP:  40;

CHEYENNE       FAIR      33  28  81 W7        30.10S WCI  27
6HR MIN TEMP:  31; 6HR MAX TEMP:  44;

TORRINGTON     FAIR      29  22  75 E5        30.05S WCI  24
6HR MIN TEMP:  26; 6HR MAX TEMP:  47;

PINE BLUFFS    FAIR      28  27  93 MISG      30.10R

$$




USA.gov is the U.S. government's official web portal to all federal, state and local government web resources and services.